Location: Unspecified
(0.0000°N, 0.0000°E)
Time: 09:10:31
(UTC+00:00)

N. Korean satellite - Pass Details

Date: 26 November 2020
Orbit: 452 x 504 km, 97.2° (Epoch: 27 November)

Event Time Altitude Azimuth Distance (km) Brightness Sun altitude
Rises 04:56:46 0° 16° (NNE) 2,559 10.2 -11.8°
Reaches altitude 10° 04:58:50 10° 20° (NNE) 1,687 9.3 -11.3°
Maximum altitude 05:02:26 63° 101° (E) 561 7.2 -10.5°
Drops below altitude 10° 05:06:05 10° 182° (S) 1,711 9.6 -9.6°
Sets 05:08:11 0° 186° (S) 2,599 10.5 -9.1°
